Time,TemperatureF,DewpointF,PressureIn,WindDirection,WindDirectionDegrees,WindSpeedMPH,WindSpeedGustMPH,Humidity,HourlyPrecipIn,Conditions,Clouds,dailyrainin,SoftwareType,DateUTC
2013-02-19 00:40:00,42.0,-99.9,-100.00,SSW,196,4.0,7.0,-999,-99.99,,,-99.99,,2013-02-19 08:40:00,
2013-02-19 01:22:00,42.0,-99.9,-100.00,SSW,196,4.0,7.0,-999,-99.99,,,-99.99,,2013-02-19 09:22:00,
2013-02-19 01:32:00,42.0,-99.9,-100.00,SSW,196,4.0,7.0,-999,-99.99,,,-99.99,,2013-02-19 09:32:00,
2013-02-19 02:40:00,38.0,-99.9,-100.00,South,187,4.0,7.0,-999,-99.99,,,-99.99,,2013-02-19 10:40:00,
2013-02-19 03:22:00,38.0,-99.9,-100.00,South,187,4.0,7.0,-999,-99.99,,,-99.99,,2013-02-19 11:22:00,
2013-02-19 03:32:00,38.0,-99.9,-100.00,South,187,4.0,7.0,-999,-99.99,,,-99.99,,2013-02-19 11:32:00,
2013-02-19 04:40:00,41.0,-99.9,-100.00,SW,216,9.0,10.0,-999,-99.99,,,-99.99,,2013-02-19 12:40:00,
2013-02-19 05:22:00,41.0,-99.9,-100.00,SW,216,9.0,10.0,-999,-99.99,,,-99.99,,2013-02-19 13:22:00,
2013-02-19 05:32:00,41.0,-99.9,-100.00,SW,216,9.0,10.0,-999,-99.99,,,-99.99,,2013-02-19 13:32:00,
2013-02-19 06:40:00,40.0,-99.9,-100.00,SW,215,6.0,8.0,-999,-99.99,,,-99.99,,2013-02-19 14:40:00,
2013-02-19 07:22:00,40.0,-99.9,-100.00,SW,215,6.0,8.0,-999,-99.99,,,-99.99,,2013-02-19 15:22:00,
2013-02-19 07:32:00,40.0,-99.9,-100.00,SW,215,6.0,8.0,-999,-99.99,,,-99.99,,2013-02-19 15:32:00,
2013-02-19 08:40:00,42.0,-99.9,-100.00,SSW,201,5.0,7.0,-999,-99.99,,,-99.99,,2013-02-19 16:40:00,
2013-02-19 09:22:00,42.0,-99.9,-100.00,SSW,201,5.0,7.0,-999,-99.99,,,-99.99,,2013-02-19 17:22:00,
2013-02-19 09:32:00,42.0,-99.9,-100.00,SSW,201,5.0,7.0,-999,-99.99,,,-99.99,,2013-02-19 17:32:00,
2013-02-19 10:40:00,42.0,-99.9,-100.00,WNW,285,5.0,9.0,-999,-99.99,,,-99.99,,2013-02-19 18:40:00,
2013-02-19 11:22:00,42.0,-99.9,-100.00,WNW,285,5.0,9.0,-999,-99.99,,,-99.99,,2013-02-19 19:22:00,
2013-02-19 11:32:00,42.0,-99.9,-100.00,WNW,285,5.0,9.0,-999,-99.99,,,-99.99,,2013-02-19 19:32:00,
2013-02-19 12:40:00,45.0,-99.9,-100.00,SSW,192,3.0,6.0,-999,-99.99,,,-99.99,,2013-02-19 20:40:00,
2013-02-19 13:22:00,45.0,-99.9,-100.00,SSW,192,3.0,6.0,-999,-99.99,,,-99.99,,2013-02-19 21:22:00,
2013-02-19 13:32:00,45.0,-99.9,-100.00,SSW,192,3.0,6.0,-999,-99.99,,,-99.99,,2013-02-19 21:32:00,
2013-02-19 14:40:00,44.0,-99.9,-100.00,SSW,204,5.0,11.0,-999,-99.99,,,-99.99,,2013-02-19 22:40:00,
2013-02-19 15:21:00,44.0,-99.9,-100.00,SSW,204,5.0,11.0,-999,-99.99,,,-99.99,,2013-02-19 23:21:00,
2013-02-19 15:32:00,44.0,-99.9,-100.00,SSW,204,5.0,11.0,-999,-99.99,,,-99.99,,2013-02-19 23:32:00,
2013-02-19 16:40:00,43.0,-99.9,-100.00,SW,220,6.0,8.0,-999,-99.99,,,-99.99,,2013-02-20 00:40:00,
2013-02-19 17:22:00,43.0,-99.9,-100.00,SW,220,6.0,8.0,-999,-99.99,,,-99.99,,2013-02-20 01:22:00,
2013-02-19 17:32:00,43.0,-99.9,-100.00,SW,220,6.0,8.0,-999,-99.99,,,-99.99,,2013-02-20 01:32:00,
2013-02-19 18:40:00,42.0,-99.9,-100.00,South,169,2.0,2.0,-999,-99.99,,,-99.99,,2013-02-20 02:40:00,
2013-02-19 19:22:00,42.0,-99.9,-100.00,South,169,2.0,2.0,-999,-99.99,,,-99.99,,2013-02-20 03:22:00,
2013-02-19 19:32:00,42.0,-99.9,-100.00,South,169,2.0,2.0,-999,-99.99,,,-99.99,,2013-02-20 03:32:00,
2013-02-19 20:40:00,36.0,-99.9,-100.00,South,181,2.0,4.0,-999,-99.99,,,-99.99,,2013-02-20 04:40:00,
2013-02-19 21:23:00,36.0,-99.9,-100.00,South,181,2.0,4.0,-999,-99.99,,,-99.99,,2013-02-20 05:23:00,
2013-02-19 21:32:00,36.0,-99.9,-100.00,South,181,2.0,4.0,-999,-99.99,,,-99.99,,2013-02-20 05:32:00,
2013-02-19 22:40:00,33.0,-99.9,-100.00,SSW,209,8.0,9.0,-999,-99.99,,,-99.99,,2013-02-20 06:40:00,
2013-02-19 23:22:00,33.0,-99.9,-100.00,SSW,209,8.0,9.0,-999,-99.99,,,-99.99,,2013-02-20 07:22:00,
2013-02-19 23:32:00,33.0,-99.9,-100.00,SSW,209,8.0,9.0,-999,-99.99,,,-99.99,,2013-02-20 07:32:00,